Location: Grądy
(53.8220°N, 21.9699°E)
Time: 01:37:50
(UTC+01:00)

ISS - Visible Passes

Search period start: 23 January 2019 00:00
Search period end: 02 February 2019 00:00
Orbit: 404 x 411 km, 51.6° (Epoch: 23 January)

Date Brightness Start Highest point End Pass type
(mag) Time Alt. Az. Time Alt. Az. Time Alt. Az.
23 Jan -0.9 18:40:55 10° SSW 18:41:04 11° SSW 18:41:04 11° SSW visible
24 Jan -1.6 17:50:28 10° S 17:52:03 14° SSE 17:52:03 14° SSE visible
25 Jan -1.8 18:34:01 10° SW 18:35:40 23° SSW 18:35:40 23° SSW visible
26 Jan -2.3 17:43:05 10° SSW 17:45:47 23° SSE 17:46:30 22° SE visible
26 Jan -0.7 19:18:41 10° WSW 19:19:13 14° WSW 19:19:13 14° WSW visible
27 Jan -1.7 16:52:24 10° S 16:54:36 17° SE 16:56:49 10° ESE visible
27 Jan -2.8 18:27:26 10° WSW 18:30:00 39° SSW 18:30:00 39° SSW visible
28 Jan -2.8 17:36:14 10° SW 17:39:18 36° SSE 17:40:44 24° ESE visible
28 Jan -1.1 19:12:19 10° W 19:13:26 19° WSW 19:13:26 19° WSW visible
29 Jan -2.3 16:45:11 10° SSW 16:48:02 27° SSE 16:50:53 10° E visible
29 Jan -3.5 18:20:58 10° WSW 18:24:08 56° S 18:24:08 56° S visible
30 Jan -3.3 17:29:38 10° WSW 17:32:51 49° SSE 17:34:49 21° E visible
30 Jan -1.5 19:05:57 10° W 19:07:31 25° WSW 19:07:31 25° WSW visible
31 Jan -3.6 18:14:33 10° W 18:17:49 59° S 18:18:11 54° SSE visible
01 Feb -3.4 17:23:09 10° WSW 17:26:24 58° S 17:28:51 16° E visible
01 Feb -1.9 18:59:34 10° W 19:01:34 30° WSW 19:01:34 30° WSW visible
